RPC7845 RPSM-RPVM

Flight info

Callsign RPC7845
Flight time 0h 33m
Altitude 4500
Route VFR
Aircraft C152/L-S/C

Departure

Time 2026-04-28 01:59
Airport Maasin Airport (RPSM)

Arrival

Time 2026-04-28 02:33
Airport Mactan Cebu International Airport (RPVM)
Time Latitude Longitude Altitude Speed Heading
2026-04-28 01:54 10.18733 124.78153 335 ft 0 kts 19°
2026-04-28 01:55 10.18735 124.78154 332 ft 2 kts
2026-04-28 01:55 10.18786 124.78169 331 ft 12 kts 23°
2026-04-28 01:55 10.18863 124.78215 329 ft 12 kts 33°
2026-04-28 01:56 10.18952 124.78219 328 ft 16 kts 341°
2026-04-28 01:56 10.19092 124.78182 326 ft 23 kts 344°
2026-04-28 01:56 10.19188 124.78145 328 ft 3 kts 27°
2026-04-28 01:56 10.19193 124.78157 328 ft 3 kts 122°
2026-04-28 01:57 10.19158 124.78163 327 ft 0 kts 162°
2026-04-28 01:57 10.19152 124.78165 327 ft 10 kts 161°
2026-04-28 01:57 10.18923 124.78262 345 ft 51 kts 140°
2026-04-28 01:57 10.18636 124.78322 377 ft 69 kts 159°
2026-04-28 01:58 10.18386 124.78346 409 ft 74 kts 166°
2026-04-28 01:59 10.17892 124.78464 615 ft 72 kts 152°
2026-04-28 01:59 10.17374 124.78461 804 ft 85 kts 205°
2026-04-28 01:59 10.17000 124.77963 910 ft 94 kts 253°
2026-04-28 01:59 10.16758 124.77337 1106 ft 93 kts 249°
2026-04-28 02:00 10.16731 124.76707 1248 ft 88 kts 276°
2026-04-28 02:00 10.16794 124.76085 1306 ft 87 kts 278°
2026-04-28 02:00 10.16806 124.75473 1583 ft 84 kts 263°
2026-04-28 02:00 10.16747 124.74860 1738 ft 90 kts 264°
2026-04-28 02:01 10.16666 124.74223 1904 ft 92 kts 259°
2026-04-28 02:01 10.16573 124.73633 2071 ft 89 kts 262°
2026-04-28 02:01 10.16448 124.73003 2223 ft 92 kts 269°
2026-04-28 02:01 10.16486 124.72349 2372 ft 95 kts 274°
2026-04-28 02:02 10.16530 124.71699 2547 ft 93 kts 281°
2026-04-28 02:02 10.16614 124.71049 2690 ft 93 kts 279°
2026-04-28 02:02 10.16691 124.70405 2853 ft 90 kts 278°
2026-04-28 02:02 10.16779 124.69787 3014 ft 89 kts 280°
2026-04-28 02:03 10.16898 124.69152 3121 ft 95 kts 281°
2026-04-28 02:03 10.17024 124.68481 3254 ft 95 kts 281°
2026-04-28 02:03 10.17130 124.67824 3380 ft 93 kts 285°
2026-04-28 02:03 10.17256 124.67191 3518 ft 91 kts 284°
2026-04-28 02:04 10.17396 124.66551 3612 ft 95 kts 285°
2026-04-28 02:04 10.17547 124.65891 3740 ft 95 kts 287°
2026-04-28 02:04 10.17709 124.65247 3861 ft 95 kts 286°
2026-04-28 02:04 10.17872 124.64599 3975 ft 97 kts 286°
2026-04-28 02:05 10.18044 124.63946 4123 ft 95 kts 287°
2026-04-28 02:05 10.18221 124.63297 4256 ft 95 kts 286°
2026-04-28 02:05 10.18397 124.62649 4396 ft 94 kts 287°
2026-04-28 02:05 10.18591 124.62003 4508 ft 97 kts 287°
2026-04-28 02:06 10.18744 124.61323 4622 ft 100 kts 284°
2026-04-28 02:06 10.18897 124.60631 4730 ft 100 kts 284°
2026-04-28 02:06 10.19050 124.59945 4845 ft 100 kts 284°
2026-04-28 02:06 10.19232 124.59276 4953 ft 98 kts 288°
2026-04-28 02:07 10.19448 124.58613 5045 ft 101 kts 290°
2026-04-28 02:07 10.19681 124.57939 5089 ft 99 kts 291°
2026-04-28 02:07 10.19912 124.57310 4954 ft 93 kts 288°
2026-04-28 02:07 10.20070 124.56684 4786 ft 91 kts 284°
2026-04-28 02:08 10.20173 124.56049 4596 ft 94 kts 279°
2026-04-28 02:08 10.20291 124.55402 4459 ft 91 kts 282°
2026-04-28 02:08 10.20424 124.54748 4465 ft 97 kts 285°
2026-04-28 02:08 10.20599 124.54064 4475 ft 103 kts 286°
2026-04-28 02:09 10.20782 124.53352 4504 ft 103 kts 285°
2026-04-28 02:09 10.20956 124.52642 4525 ft 105 kts 285°
2026-04-28 02:09 10.21128 124.51921 4551 ft 107 kts 280°
2026-04-28 02:09 10.21197 124.51166 4496 ft 105 kts 278°
2026-04-28 02:10 10.21305 124.50454 4450 ft 99 kts 280°
2026-04-28 02:10 10.21415 124.49804 4461 ft 89 kts 281°
2026-04-28 02:10 10.21528 124.49221 4458 ft 83 kts 279°
2026-04-28 02:10 10.21614 124.48648 4447 ft 83 kts 276°
2026-04-28 02:11 10.21624 124.48094 4530 ft 79 kts 259°
2026-04-28 02:11 10.21611 124.47492 4519 ft 91 kts 268°
2026-04-28 02:11 10.21663 124.46835 4543 ft 95 kts 277°
2026-04-28 02:11 10.21752 124.46139 4502 ft 105 kts 279°
2026-04-28 02:12 10.21879 124.45416 4509 ft 104 kts 281°
2026-04-28 02:12 10.21994 124.44682 4500 ft 106 kts 278°
2026-04-28 02:12 10.22111 124.43937 4491 ft 107 kts 280°
2026-04-28 02:12 10.22236 124.43197 4503 ft 106 kts 280°
2026-04-28 02:13 10.22353 124.42473 4530 ft 104 kts 279°
2026-04-28 02:13 10.22478 124.41747 4505 ft 105 kts 281°
2026-04-28 02:13 10.22615 124.41044 4487 ft 99 kts 282°
2026-04-28 02:13 10.22752 124.40370 4491 ft 96 kts 282°
2026-04-28 02:14 10.22898 124.39704 4475 ft 96 kts 283°
2026-04-28 02:14 10.23049 124.39044 4464 ft 96 kts 283°
2026-04-28 02:14 10.23190 124.38392 4463 ft 94 kts 282°
2026-04-28 02:14 10.23310 124.37741 4451 ft 94 kts 281°
2026-04-28 02:15 10.23530 124.36426 4426 ft 92 kts 277°
2026-04-28 02:15 10.23638 124.35799 4447 ft 89 kts 280°
2026-04-28 02:15 10.23757 124.35176 4460 ft 92 kts 282°
2026-04-28 02:16 10.23892 124.34527 4501 ft 96 kts 283°
2026-04-28 02:16 10.24043 124.33859 4537 ft 98 kts 283°
2026-04-28 02:16 10.24201 124.33154 4483 ft 105 kts 284°
2026-04-28 02:16 10.24316 124.32685 4526 ft 100 kts 285°
2026-04-28 02:17 10.24559 124.31772 4520 ft 103 kts 286°
2026-04-28 02:17 10.24688 124.31302 4510 ft 105 kts 286°
2026-04-28 02:17 10.24895 124.30591 4522 ft 104 kts 287°
2026-04-28 02:17 10.25099 124.29879 4508 ft 106 kts 287°
2026-04-28 02:18 10.25311 124.29156 4491 ft 107 kts 287°
2026-04-28 02:18 10.25605 124.28226 4514 ft 102 kts 288°
2026-04-28 02:18 10.25811 124.27538 4537 ft 101 kts 287°
2026-04-28 02:18 10.25932 124.27069 4511 ft 103 kts 284°
2026-04-28 02:19 10.26086 124.26355 4486 ft 104 kts 281°
2026-04-28 02:19 10.26226 124.25636 4476 ft 103 kts 281°
2026-04-28 02:19 10.26370 124.24931 4498 ft 100 kts 282°
2026-04-28 02:19 10.26494 124.24332 4511 ft 99 kts 280°
2026-04-28 02:20 10.26607 124.23645 4491 ft 101 kts 279°
2026-04-28 02:20 10.26716 124.22939 4483 ft 101 kts 280°
2026-04-28 02:20 10.26840 124.22233 4473 ft 101 kts 282°
2026-04-28 02:20 10.26954 124.21674 4480 ft 100 kts 282°
2026-04-28 02:21 10.27081 124.21022 4519 ft 97 kts 281°
2026-04-28 02:21 10.27215 124.20340 4499 ft 102 kts 282°
2026-04-28 02:21 10.27353 124.19667 4428 ft 91 kts 282°
2026-04-28 02:21 10.27493 124.19047 4265 ft 91 kts 283°
2026-04-28 02:22 10.27617 124.18387 4111 ft 98 kts 283°
2026-04-28 02:22 10.27758 124.17728 3996 ft 93 kts 286°
2026-04-28 02:22 10.27887 124.17216 3875 ft 92 kts 287°
2026-04-28 02:22 10.27904 124.17154 3861 ft 92 kts 288°
2026-04-28 02:23 10.28112 124.16526 3707 ft 92 kts 291°
2026-04-28 02:23 10.28284 124.15902 3579 ft 91 kts 286°
2026-04-28 02:23 10.28433 124.15280 3448 ft 92 kts 283°
2026-04-28 02:23 10.28573 124.14644 3317 ft 92 kts 282°
2026-04-28 02:24 10.28678 124.14005 3183 ft 92 kts 278°
2026-04-28 02:24 10.28789 124.13366 3041 ft 91 kts 282°
2026-04-28 02:24 10.28908 124.12738 2892 ft 90 kts 281°
2026-04-28 02:24 10.29003 124.12109 2749 ft 89 kts 278°
2026-04-28 02:25 10.29087 124.11487 2619 ft 87 kts 275°
2026-04-28 02:25 10.29133 124.10880 2493 ft 85 kts 275°
2026-04-28 02:25 10.29183 124.10291 2377 ft 85 kts 275°
2026-04-28 02:25 10.29240 124.09694 2237 ft 85 kts 278°
2026-04-28 02:26 10.29311 124.09094 2087 ft 86 kts 278°
2026-04-28 02:26 10.29389 124.08484 1948 ft 86 kts 280°
2026-04-28 02:26 10.29449 124.07887 1857 ft 84 kts 280°
2026-04-28 02:26 10.29516 124.07290 1732 ft 86 kts 282°
2026-04-28 02:27 10.29593 124.06690 1602 ft 84 kts 279°
2026-04-28 02:27 10.29706 124.06105 1490 ft 86 kts 285°
2026-04-28 02:27 10.29838 124.05491 1498 ft 93 kts 284°
2026-04-28 02:27 10.29952 124.04817 1482 ft 100 kts 282°
2026-04-28 02:28 10.30068 124.04120 1461 ft 99 kts 283°
2026-04-28 02:28 10.30196 124.03432 1444 ft 99 kts 285°
2026-04-28 02:28 10.30337 124.02745 1435 ft 100 kts 278°
2026-04-28 02:28 10.30367 124.02054 1396 ft 98 kts 274°
2026-04-28 02:29 10.30371 124.01375 1330 ft 94 kts 269°
2026-04-28 02:29 10.30264 124.00752 1277 ft 87 kts 246°
2026-04-28 02:29 10.29939 124.00235 1255 ft 89 kts 236°
2026-04-28 02:29 10.29604 123.99698 1186 ft 89 kts 234°
2026-04-28 02:30 10.29284 123.99175 1119 ft 90 kts 239°
2026-04-28 02:30 10.28915 123.98630 1083 ft 95 kts 234°
2026-04-28 02:30 10.28559 123.98083 1030 ft 89 kts 233°
2026-04-28 02:30 10.28205 123.97597 978 ft 85 kts 231°
2026-04-28 02:31 10.27852 123.97135 1020 ft 80 kts 227°
2026-04-28 02:31 10.27504 123.96692 1044 ft 82 kts 239°
2026-04-28 02:31 10.27590 123.96131 927 ft 84 kts 317°
2026-04-28 02:31 10.28016 123.95757 816 ft 78 kts 350°
2026-04-28 02:32 10.28523 123.95728 632 ft 65 kts 37°
2026-04-28 02:32 10.28833 123.96000 443 ft 55 kts 55°
2026-04-28 02:32 10.29124 123.96306 244 ft 59 kts 52°
2026-04-28 02:32 10.29402 123.96586 148 ft 55 kts 51°
2026-04-28 02:33 10.29669 123.96855 61 ft 58 kts 51°
2026-04-28 02:33 10.29898 123.97084 27 ft 32 kts 51°
2026-04-28 02:33 10.30045 123.97232 28 ft 31 kts 45°
2026-04-28 02:33 10.30141 123.97368 29 ft 18 kts 114°
2026-04-28 02:34 10.30065 123.97449 31 ft 11 kts 139°
2026-04-28 02:34 10.30001 123.97466 32 ft 12 kts 171°
2026-04-28 02:34 10.29935 123.97447 32 ft 13 kts 223°
2026-04-28 02:34 10.29855 123.97366 32 ft 18 kts 225°
2026-04-28 02:35 10.29763 123.97273 32 ft 18 kts 224°
2026-04-28 02:35 10.29708 123.97236 32 ft 2 kts 133°